Flag for Jamaica Weather past 2 weeks in Montego Bay, Jamaica

Now
79 °F

Partly sunny.


Feels Like: 82 °F
Forecast: N/A
Wind: 9 mph from East

Location: Montego Bay / Sangster

Current Time: Mar 4, 2015 at 3:38:26 PM

Latest Report: Mar 4, 2015 at 2:00 PM


Visibility: N/A

Pressure: 29.98 "Hg

Humidity: 84%

Dew point: 73 °F

Location of Montego BayLocation

Historic Weather in Montego Bay — Graph

°F

Montego Bay temperature yesterday

Maximum temperature yesterday: 84 °F (at 11:00 AM)
Minimum temperature yesterday: 75 °F (at 3:00 AM)
Average temperature yesterday: 79 °F

Past Weeks' High & Low Weather Summary

 TemperatureHumidityPressure
High86 °F (Feb 26, 2:00 PM)100% (Feb 18, 8:00 PM)30.12 "Hg (Feb 18, 8:00 PM)
Low72 °F (Feb 18, 4:00 AM)62% (Feb 26, 10:00 AM)29.89 "Hg (Feb 25, 3:00 PM)
Average78 °F83%30.01 "Hg
* Reported Feb 17 2:00 PM — Mar 4 2:00 PM, Montego Bay, Weather by CustomWeather, © 2015

Note: Actual official high and low records may vary slightly from our data, if they occured in-between our weather recording intervals... More about our weather records

Advertising

Montego Bay weather history for previous 24 hours

 ConditionsComfort  
Time TempWeatherWind HumidityBarometerVisibility
2:00 PM
Wed, Mar 4
79 °FPartly sunny.9 mph84%29.98 "HgN/A
1:00 PM79 °FPartly sunny.8 mph84%30.01 "HgN/A
12:00 PM79 °FBroken clouds.10 mph84%30.04 "HgN/A
11:00 AM79 °FBroken clouds.13 mph79%30.04 "HgN/A
10:00 AM79 °FPartly sunny.13 mph84%30.04 "HgN/A
9:00 AM79 °FPartly sunny.9 mph84%30.04 "HgN/A
8:00 AM77 °FScattered clouds.8 mph89%30.01 "HgN/A
7:00 AM75 °FScattered clouds.9 mph89%30.01 "HgN/A
6:00 AM75 °FPassing clouds.7 mph83%29.98 "HgN/A
5:00 AM75 °FPassing clouds.7 mph89%29.95 "HgN/A
4:00 AM75 °FPassing clouds.7 mph89%29.95 "HgN/A
3:00 AM75 °FPassing clouds.7 mph89%29.95 "HgN/A
2:00 AM75 °FPassing clouds.8 mph89%29.95 "HgN/A
1:00 AM75 °FPassing clouds.8 mph83%29.98 "HgN/A
12:00 AM75 °FPassing clouds.9 mph83%30.01 "HgN/A
11:00 PM
Tue, Mar 3
77 °FPassing clouds.8 mph79%30.01 "HgN/A
10:00 PM77 °FPassing clouds.7 mph79%30.01 "HgN/A
9:00 PM77 °FPassing clouds.8 mph79%30.01 "HgN/A
8:00 PM77 °FPassing clouds.8 mph79%29.98 "HgN/A
7:00 PM79 °FPassing clouds.10 mph79%29.98 "HgN/A
6:00 PM79 °FPassing clouds.14 mph79%29.95 "HgN/A
5:00 PM81 °FPassing clouds.20 mph74%29.95 "HgN/A
4:00 PM82 °FScattered clouds.16 mph74%29.92 "HgN/A
3:00 PM82 °FScattered clouds.18 mph74%29.95 "HgN/A
Weather by CustomWeather, © 2015

See weather overviewHow to use our weather pages